Location: Praha
(50.0830°N, 14.4670°E)
Time: 03:08:07
(UTC+01:00)

ISS - Pass Details

Date: 16 November 2025
Orbit: 414 x 420 km, 51.6° (Epoch: 18 November)

Event Time Altitude Azimuth Distance (km) Brightness Sun altitude
Rises 18:59:47 0° 254° (WSW) 2,348 1.2 -26.0°
Reaches altitude 10° 19:01:53 10° 254° (WSW) 1,487 -0.1 -26.3°
Enters shadow 19:03:22 24° 255° (WSW) 895 -1.5 -26.6°
